Location: Bühlhof
(48.7849°N, 8.6361°E)
Time: 00:32:16
(UTC+00:00)

NOSS 2-1 (C) - Pass Details

Date: 19 January 2026
Orbit: 375 x 1683 km, 63.3° (Epoch: 18 February)

Event Time Altitude Azimuth Distance (km) Brightness Sun altitude
Rises 18:25:46 0° 313° (NW) 2,383 7.2 -23.1°
Reaches altitude 10° 18:27:40 10° 306° (NW) 1,601 6.3 -23.4°
Maximum altitude 18:31:00 45° 233° (SW) 740 4.2 -24.0°
Enters shadow 18:32:38 29° 180° (S) 1,071 4.7 -24.2°
